Location: Unspecified
(50.0077°N, 36.2988°E)
Time: 19:52:20
(UTC+00:00)

N. Korean satellite - Visible Passes

Search period start: 21 September 2020 00:00
Search period end: 01 October 2020 00:00
Orbit: 455 x 503 km, 97.2° (Epoch: 21 September)

Date Brightness Start Highest point End Pass type
(mag) Time Alt. Az. Time Alt. Az. Time Alt. Az.
21 Sep 9.7 02:22:46 10° NE 02:25:33 20° E 02:28:19 10° SE visible
22 Sep 10.3 01:58:17 10° ENE 01:59:18 11° E 02:00:17 10° ESE visible
24 Sep 9.0 02:37:44 10° NNE 02:41:00 29° E 02:44:11 10° SSE visible
25 Sep 9.8 02:12:29 10° NE 02:14:46 16° E 02:17:02 10° SE visible
27 Sep 8.1 02:52:51 10° NNE 02:56:22 42° E 02:59:47 10° S visible
28 Sep 9.4 02:27:16 10° NE 02:30:11 22° E 02:33:04 10° SSE visible
29 Sep 10.1 02:02:27 10° ENE 02:03:56 12° E 02:05:23 10° ESE visible
